Tracking 19176 objects as of 26-May-2018
HD Live streaming from Space Station
objects crossing your sky now

NOAA 16 DEB

Track NOAA 16 DEB now!
10-day predictions


NORAD ID: 42336
Int'l Code: 2000-055QC
Perigee: 839.1 km
Apogee: 843.9 km
Inclination: 99.0 °
Period: 101.6 minutes
Semi major axis: 7212 km
RCS: Unknown
Launch date: September 21, 2000
Source: United States (US)
Launch site: AIR FORCE WESTERN TEST RANGE (AFWTR)

Note: This is SATELLITE DEBRIS
aabbcc
Your satellite tracking list
Your tracking list is empty




NASA's NSSDC Master Catalog

Two Line Element Set (TLE):
1 42336U 00055QC  18145.02290275 +.00003292 +00000-0 +16498-2 0  9990
2 42336 099.0075 229.9595 0003341 137.5713 222.5720 14.17336510112318
Source of the keplerian elements: AFSPC